This demonstration page uses our WeatherBlox Daily Observations layout. Learn more.

Left ArrowRight Arrow

Hourly Observations for August 22, 2021

Temp ( °F °C ) Dew Point ( °F °C ) Humidity (%) Winds ( mph kmh ) Pressure ( in mb ) Visibility ( mi km ) Precip ( " mm )
12:56 am 00:56 Cloudy 63 17.2 59 15 87 87 ESE 8 13 30.03 1017 10 16 0.00 0.00
1:56 am 01:56 Cloudy 62 16.7 59 15 90 90 SE 8 13 30.01 1016 10 16 0.00 0.00
2:56 am 02:56 Clear 61 16.1 57 13.9 87 87 ESE 9 15 29.99 1016 10 16 0.00 0.00
3:56 am 03:56 Cloudy 62 16.7 58 14.4 86 86 SSE 12 19 29.99 1016 10 16 0.00 0.00
4:56 am 04:56 Mostly Cloudy 62 16.7 58 14.4 86 86 SE 9 15 29.97 1015 10 16 0.00 0.00
5:56 am 05:56 Cloudy 63 17.2 58 14.4 84 84 SSE 12 19 29.96 1014 10 16 0.00 0.00
6:56 am 06:56 Mostly Sunny 63 17.2 58 14.4 84 84 SSE 16 26 29.93 1014 10 16 0.00 0.00
7:56 am 07:56 Sunny 64 17.8 58 14.4 81 81 SSE 18 30 29.92 1013 10 16 0.00 0.00
8:44 am 08:44 Mostly Cloudy 64 18 57 14 78 78 SSE 15 24 29.91 1013 10 16 0.00 0.00
8:56 am 08:56 Cloudy 66 18.9 59 15 78 78 SSE 15 24 29.93 1014 10 16 0.00 0.00
9:56 am 09:56 Cloudy 68 20 61 16.1 78 78 SE 16 26 29.90 1012 10 16 0.00 0.00
10:49 am 10:49 Partly Cloudy 72 22 63 17 73 73 SSE 14 22 29.85 1011 10 16 0.00 0.00
10:56 am 10:56 Mostly Sunny 72 22.2 64 17.8 76 76 SSE 14 22 29.90 1013 10 16 0.00 0.00
11:56 am 11:56 Mostly Sunny 79 26.1 68 20 69 69 S 22 35 29.88 1012 10 16 0.00 0.00
12:45 pm 12:45 Mostly Cloudy 81 27 68 20 66 66 S 16 26 29.80 1009 10 16 0.00 0.00
12:56 pm 12:56 Mostly Cloudy 80 26.7 68 20 67 67 S 14 22 29.88 1012 10 16 0.00 0.00
1:11 pm 13:11 Mostly Cloudy 82 28 70 21 66 66 S 17 28 29.78 1008 10 16 0.00 0.00
1:56 pm 13:56 Partly Cloudy 84 28.9 70 21.1 63 63 S 17 28 29.84 1011 10 16 0.00 0.00
2:56 pm 14:56 Mostly Cloudy 86 30 71 21.7 61 61 S 17 28 29.82 1010 10 16 0.00 0.00
3:56 pm 15:56 Mostly Sunny 89 31.7 71 21.7 55 55 S 21 33 29.79 1009 10 16 0.00 0.00
4:56 pm 16:56 Sunny 90 32.2 72 22.2 56 56 S 15 24 29.78 1009 10 16 0.00 0.00
5:56 pm 17:56 Sunny 88 31.1 72 22.2 59 59 SSE 9 15 29.76 1008 10 16 0.00 0.00
6:56 pm 18:56 Sunny 83 28.3 72 22.2 70 70 ESE 7 11 29.76 1008 10 16 0.00 0.00
7:56 pm 19:56 Sunny 80 26.7 72 22.2 76 76 SSW 6 9 29.78 1009 10 16 0.00 0.00
8:56 pm 20:56 Clear 77 25 67 19.4 71 71 SSW 9 15 29.77 1008 10 16 0.00 0.00
9:56 pm 21:56 Clear 74 23.3 65 18.3 74 74 SSE 13 20 29.81 1010 10 16 0.00 0.00
10:56 pm 22:56 Clear 71 21.7 64 17.8 79 79 S 8 13 29.82 1010 10 16 0.00 0.00
11:56 pm 23:56 Clear 69 20.6 61 16.1 76 76 SW 14 22 29.82 1010 10 16 0.00 0.00

Powered by AerisWeather